ORBCOMM FM 5 DEB, 50140

Orbit data source: Space-Track

ORBCOMM FM 5 DEB, 50140 is space debris in LEO originally from a launch on Tue, 23 Dec 1997 UTC launched from the Pegasus Launch, Eastern Range Air Space (ERAS). Debris objects in space refer to the collection of defunct objects orbiting the Earth. Examples of debris include non-operational satellites, rocket bodies, and fragments generated from explosions, collisions, or faulty payload assembly.

Loading next visibility...
Identifier
50140, 1997-084L
Orbit
LEO
Country
Flag of USUS / ORB
Related business
Manufacturer
OSC-Germantown
Mission
Spacecraft
Bus & Motor
Unknown
Mass
Unknown
Launch date (UTC)
1997-12-23 (28 years ago)
Launch vehicle
Unknown
Launch site
Pegasus Launch, Eastern Range Air Space (ERAS)
Object type
Payload
Rocket body
Debris
Shape & HBR
Unknown shape, 0.1 m
Radar Cross Section
Medium (>0.1 m² and <1 m²)

Expand to show TLE details & history
Last TLE update: 2 days ago

TLE from 2 days ago
0 ORBCOMM FM 5 DEB
1 50140U 97084L   26171.02971730  .00000535  00000-0  18994-3 0  9991
2 50140  45.0172  46.9860 0003382 304.4802  55.5730 14.45813479240211
Epoch: 2026-06-20T00:42Z
TLE epoch observation values (Epoch: 2026-06-20T00:42:47.574Z)
Latitude
-0.00001°
Longitude
128.03756°
Altitude
737.996 km
Speed
7.488 km/s
True Right ascension
03h 07m 56s
True Declination
0° 00' 00"
Sunlit
Object was in daylight at epoch
Visualization orbit readout
Latitude
Unknown
Longitude
Unknown
Altitude
Unknown
Speed
Unknown
Apparent Right ascension
Unknown
Apparent Declination
Unknown
Sunlit
N/A
Visualization observer readout
Local Sidereal Time
23:08:46
Azimuth
Unknown
Elevation
Unknown
Doppler factor
Unknown
Orbital elements
Apogee altitude
743.312 km
Perigee altitude
738.496 km
Semi-major axis
7,119.041 km
Eccentricity
0.00034
Inclination
45.0172°
RAAN
46.986°
Arg. of periapsis
304.4802°
True anomaly
55.60497°
Mean anomaly
55.573°
Eccentric anomaly
55.58899°
Mean motion
3.61336 °/min
Orbital period
99.63 mins
BSTAR
0.00018994
Loading maneuver chart data...
Computing Atmospheric mass density...

Documentation

Showing up to 5 results
|